Time,TemperatureF,DewpointF,PressureIn,WindDirection,WindDirectionDegrees,WindSpeedMPH,WindSpeedGustMPH,Humidity,HourlyPrecipIn,Conditions,Clouds,dailyrainin,SoftwareType,DateUTC
2013-05-12 00:00:00,46.4,29.3,29.65,WNW,293,1.8,1.8,51,0.00,,,0.00,WUHU216HW,2013-05-12 05:00:00,
2013-05-12 00:05:00,46.4,29.3,29.65,WNW,293,1.8,1.8,51,0.00,,,0.00,WUHU216HW,2013-05-12 05:05:00,
2013-05-12 00:30:00,45.9,28.4,29.66,NW,315,2.7,2.7,50,0.00,,,0.00,WUHU216HW,2013-05-12 05:30:00,
2013-05-12 00:35:00,45.9,28.4,29.66,NW,315,2.7,2.7,50,0.00,,,0.00,WUHU216HW,2013-05-12 05:35:00,
2013-05-12 01:00:00,45.7,28.6,29.66,NW,315,1.1,1.1,51,0.00,,,0.00,WUHU216HW,2013-05-12 06:00:00,
2013-05-12 01:05:00,45.7,28.6,29.66,NW,315,1.1,1.1,51,0.00,,,0.00,WUHU216HW,2013-05-12 06:05:00,
2013-05-12 01:30:00,45.0,28.5,29.66,NW,315,2.0,2.0,52,0.00,,,0.00,WUHU216HW,2013-05-12 06:30:00,
2013-05-12 01:35:00,45.0,28.5,29.66,NW,315,2.0,2.0,52,0.00,,,0.00,WUHU216HW,2013-05-12 06:35:00,
2013-05-12 02:00:00,44.5,28.4,29.67,NW,315,1.1,1.1,53,0.00,,,0.00,WUHU216HW,2013-05-12 07:00:00,
2013-05-12 02:05:00,44.5,28.4,29.67,NW,315,1.1,1.1,53,0.00,,,0.00,WUHU216HW,2013-05-12 07:05:00,
2013-05-12 02:30:00,43.9,28.3,29.66,NW,315,1.8,1.8,54,0.00,,,0.00,WUHU216HW,2013-05-12 07:30:00,
2013-05-12 02:35:00,43.9,28.3,29.66,NW,315,1.8,1.8,54,0.00,,,0.00,WUHU216HW,2013-05-12 07:35:00,
2013-05-12 03:00:00,43.2,28.1,29.66,NW,315,1.1,1.1,55,0.00,,,0.00,WUHU216HW,2013-05-12 08:00:00,
2013-05-12 03:05:00,43.2,28.1,29.66,NW,315,1.1,1.1,55,0.00,,,0.00,WUHU216HW,2013-05-12 08:05:00,
2013-05-12 03:30:00,42.5,28.3,29.66,NW,315,1.6,1.6,57,0.00,,,0.00,WUHU216HW,2013-05-12 08:30:00,
2013-05-12 03:35:00,42.5,28.3,29.66,NW,315,1.6,1.6,57,0.00,,,0.00,WUHU216HW,2013-05-12 08:35:00,
2013-05-12 04:00:00,42.3,28.5,29.67,NNW,338,0.0,0.0,58,0.00,,,0.00,WUHU216HW,2013-05-12 09:00:00,
2013-05-12 04:05:00,42.3,28.5,29.67,NNW,338,0.0,0.0,58,0.00,,,0.00,WUHU216HW,2013-05-12 09:05:00,
2013-05-12 04:30:00,41.8,29.3,29.67,WNW,293,0.0,0.0,61,0.00,,,0.00,WUHU216HW,2013-05-12 09:30:00,
2013-05-12 04:35:00,41.8,29.3,29.67,WNW,293,0.0,0.0,61,0.00,,,0.00,WUHU216HW,2013-05-12 09:35:00,
2013-05-12 05:00:00,41.0,29.4,29.67,NNW,338,0.0,0.0,63,0.00,,,0.00,WUHU216HW,2013-05-12 10:00:00,
2013-05-12 05:05:00,41.0,29.4,29.67,NNW,338,0.0,0.0,63,0.00,,,0.00,WUHU216HW,2013-05-12 10:05:00,
2013-05-12 05:30:00,41.0,29.4,29.68,West,270,0.0,0.0,63,0.00,,,0.00,WUHU216HW,2013-05-12 10:30:00,
2013-05-12 05:35:00,41.0,29.4,29.68,West,270,0.0,0.0,63,0.00,,,0.00,WUHU216HW,2013-05-12 10:35:00,
2013-05-12 06:00:00,40.7,29.1,29.69,WNW,293,0.4,0.4,63,0.00,,,0.00,WUHU216HW,2013-05-12 11:00:00,
2013-05-12 06:05:00,40.7,29.1,29.69,WNW,293,0.4,0.4,63,0.00,,,0.00,WUHU216HW,2013-05-12 11:05:00,
2013-05-12 06:30:00,41.0,29.8,29.69,NW,315,1.1,1.1,64,0.00,,,0.00,WUHU216HW,2013-05-12 11:30:00,
2013-05-12 06:35:00,41.0,29.8,29.69,NW,315,1.1,1.1,64,0.00,,,0.00,WUHU216HW,2013-05-12 11:35:00,
2013-05-12 07:00:00,42.8,30.7,29.70,NNW,338,1.8,1.8,62,0.00,,,0.00,WUHU216HW,2013-05-12 12:00:00,
2013-05-12 07:05:00,42.8,30.7,29.70,NNW,338,1.8,1.8,62,0.00,,,0.00,WUHU216HW,2013-05-12 12:05:00,
2013-05-12 07:30:00,43.9,30.5,29.70,NW,315,4.3,4.3,59,0.00,,,0.00,WUHU216HW,2013-05-12 12:30:00,
2013-05-12 07:35:00,43.9,30.5,29.70,NW,315,4.3,4.3,59,0.00,,,0.00,WUHU216HW,2013-05-12 12:35:00,
2013-05-12 08:00:00,45.5,31.1,29.71,SW,225,1.8,1.8,57,0.00,,,0.00,WUHU216HW,2013-05-12 13:00:00,
2013-05-12 08:05:00,45.5,31.1,29.71,SW,225,1.8,1.8,57,0.00,,,0.00,WUHU216HW,2013-05-12 13:05:00,
2013-05-12 08:30:00,47.2,31.8,29.71,NNE,23,0.7,0.7,55,0.00,,,0.00,WUHU216HW,2013-05-12 13:30:00,
2013-05-12 08:35:00,47.2,31.8,29.71,NNE,23,0.7,0.7,55,0.00,,,0.00,WUHU216HW,2013-05-12 13:35:00,
2013-05-12 09:00:00,48.6,30.3,29.71,WNW,293,2.7,2.7,49,0.00,,,0.00,WUHU216HW,2013-05-12 14:00:00,
2013-05-12 09:05:00,48.6,30.3,29.71,WNW,293,2.7,2.7,49,0.00,,,0.00,WUHU216HW,2013-05-12 14:05:00,
2013-05-12 09:30:00,50.0,30.5,29.72,NW,315,3.4,3.4,47,0.00,,,0.00,WUHU216HW,2013-05-12 14:30:00,
2013-05-12 09:35:00,50.0,30.5,29.72,NW,315,3.4,3.4,47,0.00,,,0.00,WUHU216HW,2013-05-12 14:35:00,
2013-05-12 10:00:00,50.8,29.0,29.72,WNW,293,5.6,5.6,43,0.00,,,0.00,WUHU216HW,2013-05-12 15:00:00,
2013-05-12 10:05:00,50.8,29.0,29.72,WNW,293,5.6,5.6,43,0.00,,,0.00,WUHU216HW,2013-05-12 15:05:00,
2013-05-12 10:30:00,51.8,30.5,29.72,NW,315,2.5,2.5,44,0.00,,,0.00,WUHU216HW,2013-05-12 15:30:00,
2013-05-12 10:35:00,51.8,30.5,29.72,NW,315,2.5,2.5,44,0.00,,,0.00,WUHU216HW,2013-05-12 15:35:00,
2013-05-12 11:00:00,52.9,30.9,29.73,North,0,2.5,2.5,43,0.00,,,0.00,WUHU216HW,2013-05-12 16:00:00,
2013-05-12 11:05:00,52.9,30.9,29.73,NW,315,2.0,2.5,43,0.00,,,0.00,WUHU216HW,2013-05-12 16:05:00,
2013-05-12 11:10:00,52.9,30.9,29.73,NW,315,2.0,2.0,43,0.00,,,0.00,WUHU216HW,2013-05-12 16:10:00,
2013-05-12 11:30:00,53.5,29.7,29.72,West,270,3.1,3.1,40,0.00,,,0.00,WUHU216HW,2013-05-12 16:30:00,
2013-05-12 11:35:00,53.5,29.7,29.72,West,270,3.1,3.1,40,0.00,,,0.00,WUHU216HW,2013-05-12 16:35:00,
2013-05-12 12:00:00,55.1,29.1,29.72,North,0,4.7,4.7,37,0.00,,,0.00,WUHU216HW,2013-05-12 17:00:00,
2013-05-12 12:05:00,55.1,29.1,29.72,North,0,4.7,4.7,37,0.00,,,0.00,WUHU216HW,2013-05-12 17:05:00,
2013-05-12 12:30:00,55.1,25.6,29.72,NNW,338,3.6,3.6,32,0.00,,,0.00,WUHU216HW,2013-05-12 17:30:00,
2013-05-12 12:35:00,55.1,25.6,29.72,NNW,338,3.6,3.6,32,0.00,,,0.00,WUHU216HW,2013-05-12 17:35:00,
2013-05-12 13:00:00,56.5,28.3,29.72,NNW,338,1.6,1.6,34,0.00,,,0.00,WUHU216HW,2013-05-12 18:00:00,
2013-05-12 13:05:00,56.5,28.3,29.72,NNW,338,1.6,1.6,34,0.00,,,0.00,WUHU216HW,2013-05-12 18:05:00,
2013-05-12 13:30:00,56.9,28.6,29.71,North,0,2.9,2.9,34,0.00,,,0.00,WUHU216HW,2013-05-12 18:30:00,
2013-05-12 13:35:00,56.9,28.6,29.71,North,0,2.9,2.9,34,0.00,,,0.00,WUHU216HW,2013-05-12 18:35:00,
2013-05-12 14:00:00,57.6,30.6,29.71,NW,315,4.3,4.3,36,0.00,,,0.00,WUHU216HW,2013-05-12 19:00:00,
2013-05-12 14:05:00,57.6,30.6,29.71,NW,315,4.3,4.3,36,0.00,,,0.00,WUHU216HW,2013-05-12 19:05:00,
2013-05-12 14:30:00,58.5,28.6,29.70,WSW,248,7.2,7.2,32,0.00,,,0.00,WUHU216HW,2013-05-12 19:30:00,
2013-05-12 14:35:00,58.5,28.6,29.70,WSW,248,7.2,7.2,32,0.00,,,0.00,WUHU216HW,2013-05-12 19:35:00,
2013-05-12 15:00:00,58.5,27.3,29.70,NW,315,5.4,5.4,30,0.00,,,0.00,WUHU216HW,2013-05-12 20:00:00,
2013-05-12 15:05:00,58.5,27.3,29.70,NW,315,5.4,5.4,30,0.00,,,0.00,WUHU216HW,2013-05-12 20:05:00,
2013-05-12 15:30:00,58.7,29.5,29.68,West,270,4.7,4.7,33,0.00,,,0.00,WUHU216HW,2013-05-12 20:30:00,
2013-05-12 15:35:00,58.7,29.5,29.68,West,270,4.7,4.7,33,0.00,,,0.00,WUHU216HW,2013-05-12 20:35:00,
2013-05-12 16:30:00,59.2,29.3,29.67,WNW,293,4.7,4.7,32,0.00,,,0.00,WUHU216HW,2013-05-12 21:30:00,
2013-05-12 16:35:00,59.2,29.3,29.67,WNW,293,4.7,4.7,32,0.00,,,0.00,WUHU216HW,2013-05-12 21:35:00,
2013-05-12 17:00:00,59.0,29.2,29.66,NW,315,5.4,5.4,32,0.00,,,0.00,WUHU216HW,2013-05-12 22:00:00,
2013-05-12 17:05:00,59.0,29.2,29.66,NW,315,5.4,5.4,32,0.00,,,0.00,WUHU216HW,2013-05-12 22:05:00,
2013-05-12 17:30:00,59.2,28.5,29.66,SSW,203,7.8,7.8,31,0.00,,,0.00,WUHU216HW,2013-05-12 22:30:00,
2013-05-12 17:35:00,59.2,28.5,29.66,SSW,203,7.8,7.8,31,0.00,,,0.00,WUHU216HW,2013-05-12 22:35:00,
2013-05-12 18:00:00,58.5,28.6,29.66,West,270,4.7,4.7,32,0.00,,,0.00,WUHU216HW,2013-05-12 23:00:00,
2013-05-12 18:05:00,58.5,28.6,29.66,West,270,4.7,4.7,32,0.00,,,0.00,WUHU216HW,2013-05-12 23:05:00,
2013-05-12 18:30:00,57.6,27.8,29.66,NW,315,3.1,3.1,32,0.00,,,0.00,WUHU216HW,2013-05-12 23:30:00,
2013-05-12 18:35:00,57.6,27.8,29.66,NW,315,3.1,3.1,32,0.00,,,0.00,WUHU216HW,2013-05-12 23:35:00,
2013-05-12 19:00:00,57.1,27.4,29.66,West,270,4.0,4.0,32,0.00,,,0.00,WUHU216HW,2013-05-13 00:00:00,
2013-05-12 19:05:00,57.1,27.4,29.66,West,270,4.0,4.0,32,0.00,,,0.00,WUHU216HW,2013-05-13 00:05:00,
2013-05-12 19:30:00,56.5,27.5,29.66,WSW,248,5.4,5.4,33,0.00,,,0.00,WUHU216HW,2013-05-13 00:30:00,
2013-05-12 19:35:00,56.5,27.5,29.66,WSW,248,5.4,5.4,33,0.00,,,0.00,WUHU216HW,2013-05-13 00:35:00,
2013-05-12 20:00:00,55.3,28.5,29.66,NW,315,2.2,2.2,36,0.00,,,0.00,WUHU216HW,2013-05-13 01:00:00,
2013-05-12 20:05:00,55.3,28.5,29.66,NW,315,2.2,2.2,36,0.00,,,0.00,WUHU216HW,2013-05-13 01:05:00,
2013-05-12 20:30:00,54.0,29.5,29.66,WNW,293,2.7,2.7,39,0.00,,,0.00,WUHU216HW,2013-05-13 01:30:00,
2013-05-12 20:35:00,54.0,29.5,29.66,WNW,293,2.7,2.7,39,0.00,,,0.00,WUHU216HW,2013-05-13 01:35:00,
2013-05-12 21:00:00,53.1,30.5,29.68,WNW,293,0.9,0.9,42,0.00,,,0.00,WUHU216HW,2013-05-13 02:00:00,
2013-05-12 21:05:00,53.1,30.5,29.68,NW,315,0.9,0.9,42,0.00,,,0.00,WUHU216HW,2013-05-13 02:05:00,
2013-05-12 21:10:00,53.1,30.5,29.68,NW,315,0.9,0.9,42,0.00,,,0.00,WUHU216HW,2013-05-13 02:10:00,
2013-05-12 21:30:00,51.8,30.0,29.69,West,270,1.3,1.3,43,0.00,,,0.00,WUHU216HW,2013-05-13 02:30:00,
2013-05-12 21:35:00,51.8,30.0,29.69,West,270,1.3,1.3,43,0.00,,,0.00,WUHU216HW,2013-05-13 02:35:00,
2013-05-12 22:00:00,50.9,30.2,29.69,North,0,0.0,0.0,45,0.00,,,0.00,WUHU216HW,2013-05-13 03:00:00,
2013-05-12 22:05:00,50.9,30.2,29.69,North,0,0.0,0.0,45,0.00,,,0.00,WUHU216HW,2013-05-13 03:05:00,
2013-05-12 22:30:00,49.7,30.8,29.69,NNE,23,0.0,0.0,48,0.00,,,0.00,WUHU216HW,2013-05-13 03:30:00,
2013-05-12 22:35:00,49.7,30.8,29.69,NNE,23,0.0,0.0,48,0.00,,,0.00,WUHU216HW,2013-05-13 03:35:00,
2013-05-12 23:00:00,48.6,31.2,29.69,NW,315,0.0,0.0,51,0.00,,,0.00,WUHU216HW,2013-05-13 04:00:00,
2013-05-12 23:01:00,48.6,31.2,29.69,NW,315,0.0,0.0,51,0.00,,,0.00,WUHU216HW,2013-05-13 04:01:00,
2013-05-12 23:06:00,48.6,31.2,29.69,NW,315,0.0,0.0,51,0.00,,,0.00,WUHU216HW,2013-05-13 04:06:00,
2013-05-12 23:30:00,47.5,31.1,29.69,NNW,338,0.0,0.0,53,0.00,,,0.00,WUHU216HW,2013-05-13 04:30:00,
2013-05-12 23:35:00,47.5,31.1,29.69,NNW,338,0.0,0.0,53,0.00,,,0.00,WUHU216HW,2013-05-13 04:35:00,